EW6606 Weather Reports


Display with metric or nautical units.
time (UTC)temp
F
wind
direction
speed
MPH
gust
MPH
rain 1hr
in
rain 24hr
in
rain mn
in
humidity
%
barometer
mb
20260506002653 73 134 2.0 2.0 0.00 0.00 0.00 63 1012.1
20260506002149 73 161 1.0 3.0 0.00 0.00 0.00 63 1011.9
20260506001645 73 170 2.0 3.0 0.00 0.00 0.00 63 1011.7
20260506001142 73 134 1.0 2.0 0.00 0.00 0.00 62 1011.7
20260506000639 74 164 2.0 3.0 0.00 0.00 0.00 62 1011.9
20260506000136 74 125 2.0 3.0 0.00 0.00 0.00 62 1011.8
20260505235634 74 127 2.0 2.0 0.00 0.00 0.00 62 1012.0
20260505235131 74 121 0.0 2.0 0.00 0.00 0.00 61 1012.0
20260505234628 75 114 1.0 2.0 0.00 0.00 0.00 61 1012.2
20260505234125 75 119 0.0 4.0 0.00 0.00 0.00 61 1012.1
20260505233623 75 132 0.0 3.0 0.00 0.00 0.00 61 1012.4
20260505233120 75 159 2.0 3.0 0.00 0.00 0.00 61 1012.4
20260505232617 75 111 2.0 2.0 0.00 0.00 0.00 60 1012.3
20260505232115 75 120 2.0 3.0 0.00 0.00 0.00 60 1012.7
20260505231612 75 173 2.0 5.0 0.00 0.00 0.00 60 1012.6
20260505231110 75 97 0.0 2.0 0.00 0.00 0.00 60 1012.8
20260505230608 75 143 2.0 3.0 0.00 0.00 0.00 60 1012.8
20260505230104 75 178 2.0 4.0 0.00 0.00 0.00 59 1012.7
20260505225600 76 117 2.0 2.0 0.00 0.00 0.00 60 1012.6
20260505225056 76 113 1.0 3.0 0.00 0.00 0.00 59 1012.7
20260505224553 76 105 1.0 3.0 0.00 0.00 0.00 59 1012.6
20260505224051 75 97 2.0 4.0 0.00 0.00 0.00 59 1012.6
20260505223548 75 155 1.0 4.0 0.00 0.00 0.00 59 1012.6
20260505223044 75 120 2.0 4.0 0.00 0.00 0.00 58 1012.6
20260505222540 75 155 3.0 5.0 0.00 0.00 0.00 58 1012.7
20260505222037 75 145 1.0 3.0 0.00 0.00 0.00 58 1012.7
20260505221534 76 117 0.0 3.0 0.00 0.00 0.00 58 1012.7
20260505221030 75 144 2.0 4.0 0.00 0.00 0.00 57 1012.9
20260505220528 75 152 2.0 5.0 0.00 0.00 0.00 57 1012.6
20260505220026 75 162 0.0 2.0 0.00 0.00 0.00 58 1012.7
20260505215524 75 104 2.0 5.0 0.00 0.00 0.00 56 1012.7
20260505215021 76 169 3.0 5.0 0.00 0.00 0.00 57 1012.7
20260505214519 76 128 2.0 5.0 0.00 0.00 0.00 56 1012.8
20260505214015 76 163 2.0 4.0 0.00 0.00 0.00 57 1012.9
20260505213513 76 134 0.0 6.0 0.00 0.00 0.00 57 1012.9
20260505213009 76 117 2.0 5.0 0.00 0.00 0.00 56 1012.9
20260505212506 76 140 0.0 3.0 0.00 0.00 0.00 57 1012.9
20260505212003 76 134 1.0 3.0 0.00 0.00 0.00 56 1012.9
20260505211500 76 112 1.0 3.0 0.00 0.00 0.00 57 1012.8
20260505210956 76 113 0.0 4.0 0.00 0.00 0.00 56 1013.0
20260505210453 76 111 1.0 5.0 0.00 0.00 0.00 57 1013.0
20260505205950 76 109 2.0 3.0 0.00 0.00 0.00 57 1012.9
20260505205449 76 173 2.0 4.0 0.00 0.00 0.00 57 1012.9
20260505204945 76 140 3.0 4.0 0.00 0.00 0.00 56 1012.9
20260505204443 76 134 2.0 5.0 0.00 0.00 0.00 56 1012.9
20260505203940 77 125 3.0 7.0 0.00 0.00 0.00 54 1013.0
20260505203437 76 155 2.0 4.0 0.00 0.00 0.00 55 1013.1
20260505202933 76 108 3.0 5.0 0.00 0.00 0.00 56 1013.1
20260505202429 76 139 5.0 7.0 0.00 0.00 0.00 56 1013.2
20260505201926 77 131 1.0 3.0 0.00 0.00 0.00 56 1013.0
20260505201423 77 161 1.0 9.0 0.00 0.00 0.00 56 1013.0
20260505200921 77 96 0.0 5.0 0.00 0.00 0.00 56 1013.2
20260505200418 76 197 2.0 3.0 0.00 0.00 0.00 58 1012.9
20260505195913 76 89 0.0 5.0 0.00 0.00 0.00 56 1013.3
20260505195411 76 161 2.0 5.0 0.00 0.00 0.00 57 1013.3
20260505194908 76 96 3.0 3.0 0.00 0.00 0.00 58 1013.5
20260505194406 76 124 3.0 6.0 0.00 0.00 0.00 56 1013.6
20260505193905 76 128 4.0 5.0 0.00 0.00 0.00 58 1013.5
20260505193404 75 142 0.0 3.0 0.00 0.00 0.00 57 1013.6
20260505192901 75 154 2.0 5.0 0.00 0.00 0.00 57 1013.7
20260505192359 76 122 1.0 11.0 0.00 0.00 0.00 54 1013.6
20260505191856 76 112 3.0 7.0 0.00 0.00 0.00 56 1013.7
20260505191355 76 135 2.0 3.0 0.00 0.00 0.00 58 1014.0
20260505190851 76 193 4.0 4.0 0.00 0.00 0.00 58 1014.0
20260505190347 76 211 1.0 7.0 0.00 0.00 0.00 59 1013.8
20260505185842 75 114 2.0 7.0 0.00 0.00 0.00 59 1014.3
20260505185339 75 216 1.0 3.0 0.00 0.00 0.00 59 1014.1
20260505184835 75 176 2.0 4.0 0.00 0.00 0.00 58 1014.2
20260505184333 75 149 2.0 4.0 0.00 0.00 0.00 60 1014.2
20260505183830 75 99 2.0 5.0 0.00 0.00 0.00 60 1014.2
20260505183326 74 114 2.0 5.0 0.00 0.00 0.00 61 1014.5
20260505182823 74 102 0.0 3.0 0.00 0.00 0.00 60 1014.4
20260505182320 74 111 2.0 6.0 0.00 0.00 0.00 61 1014.5
20260505181817 74 120 3.0 5.0 0.00 0.00 0.00 59 1014.5
20260505181314 74 149 3.0 4.0 0.00 0.00 0.00 60 1014.3
20260505180810 73 97 2.0 2.0 0.00 0.00 0.00 61 1014.6
20260505180307 73 146 2.0 5.0 0.00 0.00 0.00 62 1014.9
20260505175803 73 111 3.0 8.0 0.00 0.00 0.00 62 1014.6
20260505175300 73 172 4.0 5.0 0.00 0.00 0.00 61 1014.8
20260505174756 73 123 3.0 5.0 0.00 0.00 0.00 62 1014.6
20260505174254 73 113 3.0 8.0 0.00 0.00 0.00 60 1014.9
20260505173750 73 145 3.0 4.0 0.00 0.00 0.00 63 1015.0
20260505173246 72 112 3.0 6.0 0.00 0.00 0.00 62 1015.2
20260505172743 73 177 2.0 6.0 0.00 0.00 0.00 62 1015.0
20260505172240 73 114 3.0 7.0 0.00 0.00 0.00 61 1015.1
20260505171740 73 143 0.0 5.0 0.00 0.00 0.00 62 1015.3
20260505171238 73 154 0.0 5.0 0.00 0.00 0.00 62 1015.3
20260505170734 72 106 1.0 4.0 0.00 0.00 0.00 62 1015.2
20260505170231 73 141 3.0 8.0 0.00 0.00 0.00 61 1015.4
20260505165726 72 299 5.0 8.0 0.00 0.00 0.00 62 1015.1
20260505165223 73 182 4.0 5.0 0.00 0.00 0.00 63 1015.4
20260505164718 72 67 1.0 5.0 0.00 0.00 0.00 63 1015.2
20260505164216 72 111 3.0 4.0 0.00 0.00 0.00 64 1015.3
20260505163714 71 111 1.0 5.0 0.00 0.00 0.00 63 1015.5
20260505163212 71 111 4.0 6.0 0.00 0.00 0.00 63 1015.3
20260505162709 72 118 0.0 4.0 0.00 0.00 0.00 61 1015.3
20260505162206 72 126 4.0 6.0 0.00 0.00 0.00 63 1015.2
20260505161703 71 115 2.0 5.0 0.00 0.00 0.00 65 1015.3
20260505161201 71 168 0.0 8.0 0.00 0.00 0.00 65 1015.4
20260505160658 70 114 2.0 4.0 0.00 0.00 0.00 65 1015.4
20260505160155 70 66 2.0 4.0 0.00 0.00 0.00 67 1015.4
20260505153134 70 114 2.0 5.0 0.00 0.00 0.00 68 1015.6
20260505152631 69 29 2.0 5.0 0.00 0.00 0.00 67 1015.4
20260505152127 69 283 6.0 11.0 0.00 0.00 0.00 67 1015.6
20260505151622 69 110 3.0 5.0 0.00 0.00 0.00 69 1015.7
20260505151120 69 106 2.0 3.0 0.00 0.00 0.00 69 1015.7
20260505150616 69 120 1.0 7.0 0.00 0.00 0.00 67 1015.8
20260505150113 68 102 1.0 4.0 0.00 0.00 0.00 69 1015.8
20260505140541 65 350 3.0 5.0 0.00 0.00 0.00 73 1015.6
20260505124955 60 123 1.0 4.0 0.00 0.00 0.00 80 1014.8
20260505124452 60 119 2.0 3.0 0.00 0.00 0.00 80 1014.8
20260505123948 60 120 2.0 3.0 0.00 0.00 0.00 81 1014.8
20260505123444 59 99 2.0 3.0 0.00 0.00 0.00 82 1014.5
20260505122940 59 106 2.0 3.0 0.00 0.00 0.00 82 1014.4
20260505122438 59 102 2.0 4.0 0.00 0.00 0.00 83 1014.5
20260505121935 58 122 2.0 4.0 0.00 0.00 0.00 84 1014.2
20260505121432 57 127 2.0 4.0 0.00 0.00 0.00 85 1014.1
20260505120927 57 149 3.0 4.0 0.00 0.00 0.00 85 1014.2
20260505120424 56 131 2.0 3.0 0.00 0.00 0.00 86 1013.9
20260505115923 56 128 2.0 3.0 0.00 0.00 0.00 86 1014.1
20260505115420 55 109 2.0 3.0 0.00 0.00 0.00 86 1014.1
20260505114918 55 117 2.0 3.0 0.00 0.00 0.00 86 1013.9
20260505114414 55 118 2.0 3.0 0.00 0.00 0.00 86 1013.9
20260505113910 55 126 3.0 3.0 0.00 0.00 0.00 86 1013.8
20260505113407 54 124 2.0 3.0 0.00 0.00 0.00 85 1013.9
20260505112903 54 120 2.0 3.0 0.00 0.00 0.00 85 1013.8
20260505112401 54 109 1.0 3.0 0.00 0.00 0.00 85 1013.8
20260505111856 54 106 2.0 3.0 0.00 0.00 0.00 85 1013.9
20260505111351 54 118 2.0 3.0 0.00 0.00 0.00 85 1013.9
20260505110848 54 108 2.0 2.0 0.00 0.00 0.00 84 1013.7
20260505110345 54 112 2.0 3.0 0.00 0.00 0.00 84 1013.9
20260505101815 55 123 2.0 3.0 0.00 0.00 0.00 83 1013.4
20260505101310 55 113 2.0 4.0 0.00 0.00 0.00 83 1013.6
20260505100806 55 142 2.0 4.0 0.00 0.00 0.00 83 1013.4
20260505100258 55 127 2.0 3.0 0.00 0.00 0.00 83 1013.4
20260505095753 55 111 2.0 4.0 0.00 0.00 0.00 82 1013.5
20260505095251 55 123 3.0 4.0 0.00 0.00 0.00 82 1013.4
20260505094746 56 103 1.0 4.0 0.00 0.00 0.00 82 1013.6
20260505094244 56 102 3.0 3.0 0.00 0.00 0.00 82 1013.7
20260505093739 56 120 2.0 3.0 0.00 0.00 0.00 82 1013.7
20260505093237 56 103 2.0 3.0 0.00 0.00 0.00 82 1013.6
20260505092734 56 104 2.0 3.0 0.00 0.00 0.00 81 1013.8
20260505092233 56 151 4.0 5.0 0.00 0.00 0.00 81 1013.8
20260505091729 56 133 2.0 5.0 0.00 0.00 0.00 81 1014.0
20260505091228 56 146 3.0 3.0 0.00 0.00 0.00 81 1013.9
20260505090725 56 135 2.0 3.0 0.00 0.00 0.00 81 1013.9
20260505090223 56 120 2.0 3.0 0.00 0.00 0.00 80 1013.9
20260505085720 56 129 2.0 3.0 0.00 0.00 0.00 79 1013.9
20260505085218 57 118 2.0 2.0 0.00 0.00 0.00 77 1013.8
20260505084715 57 111 1.0 2.0 0.00 0.00 0.00 76 1013.9
20260505084214 57 99 0.0 2.0 0.00 0.00 0.00 76 1013.9
20260505083710 58 89 0.0 2.0 0.00 0.00 0.00 75 1014.2
20260505083208 58 127 0.0 2.0 0.00 0.00 0.00 75 1013.9
20260505082703 58 104 0.0 2.0 0.00 0.00 0.00 74 1013.9
20260505082201 58 106 1.0 2.0 0.00 0.00 0.00 74 1014.0
20260505081656 58 96 0.0 1.0 0.00 0.00 0.00 74 1014.1
20260505081154 58 117 0.0 2.0 0.00 0.00 0.00 74 1013.9
20260505080651 59 105 1.0 2.0 0.00 0.00 0.00 73 1014.0
20260505080147 59 111 0.0 2.0 0.00 0.00 0.00 73 1014.0
20260505075643 59 126 0.0 1.0 0.00 0.00 0.00 73 1014.0
20260505075140 59 124 0.0 1.0 0.00 0.00 0.00 72 1013.9
20260505074637 59 65 0.0 1.0 0.00 0.00 0.00 72 1014.2
20260505074134 59 113 1.0 2.0 0.00 0.00 0.00 72 1014.1
20260505073632 59 116 0.0 1.0 0.00 0.00 0.00 72 1014.3
20260505073130 59 108 1.0 1.0 0.00 0.00 0.00 72 1014.4
20260505072625 59 104 0.0 2.0 0.00 0.00 0.00 71 1014.3
20260505072122 59 103 1.0 1.0 0.00 0.00 0.00 71 1014.2
20260505071617 59 110 1.0 2.0 0.00 0.00 0.00 71 1014.2
20260505071115 59 119 1.0 2.0 0.00 0.00 0.00 71 1014.2
20260505070612 60 117 1.0 2.0 0.00 0.00 0.00 70 1014.4
20260505070108 60 102 2.0 2.0 0.00 0.00 0.00 70 1014.3
20260505065604 60 107 1.0 2.0 0.00 0.00 0.00 70 1014.4
20260505065101 60 95 0.0 2.0 0.00 0.00 0.00 69 1014.4
20260505064558 60 106 1.0 2.0 0.00 0.00 0.00 69 1014.4
20260505064057 60 130 2.0 3.0 0.00 0.00 0.00 69 1014.4
20260505063553 61 133 1.0 2.0 0.00 0.00 0.00 68 1014.4
20260505063049 61 105 1.0 2.0 0.00 0.00 0.00 68 1014.5
20260505062546 61 134 2.0 4.0 0.00 0.00 0.00 68 1014.2
20260505062043 61 122 2.0 3.0 0.00 0.00 0.00 68 1014.4
20260505061540 61 106 1.0 3.0 0.00 0.00 0.00 67 1014.4
20260505061038 61 117 2.0 4.0 0.00 0.00 0.00 67 1014.6
20260505060536 61 112 2.0 3.0 0.00 0.00 0.00 66 1014.3
20260505060032 62 122 2.0 3.0 0.00 0.00 0.00 66 1014.5
20260505055527 62 123 1.0 3.0 0.00 0.00 0.00 65 1014.4
20260505055024 62 107 2.0 2.0 0.00 0.00 0.00 65 1014.6
20260505054522 62 106 1.0 3.0 0.00 0.00 0.00 64 1014.6
20260505054020 62 119 2.0 2.0 0.00 0.00 0.00 64 1014.8
20260505053517 62 96 1.0 2.0 0.00 0.00 0.00 63 1015.0
20260505053013 62 119 1.0 2.0 0.00 0.00 0.00 63 1014.8
20260505052510 62 98 1.0 2.0 0.00 0.00 0.00 63 1014.6
20260505052008 62 115 2.0 2.0 0.00 0.00 0.00 63 1014.6
20260505051504 62 111 1.0 2.0 0.00 0.00 0.00 63 1014.3
20260505051003 63 96 0.0 2.0 0.00 0.00 0.00 63 1014.3
20260505050500 63 87 1.0 2.0 0.00 0.00 0.00 63 1014.3
20260505041428 61 89 0.0 1.0 0.00 0.00 0.00 67 1014.2
20260505040925 61 121 2.0 3.0 0.00 0.00 0.00 67 1014.3
20260505040423 61 119 2.0 2.0 0.00 0.00 0.00 67 1014.3
20260505035919 62 103 1.0 2.0 0.00 0.00 0.00 67 1014.5
20260505035415 62 92 1.0 2.0 0.00 0.00 0.00 67 1014.3
20260505034913 62 102 0.0 2.0 0.00 0.00 0.00 66 1014.2
20260505034409 62 112 0.0 1.0 0.00 0.00 0.00 66 1014.1
20260505033906 62 116 0.0 1.0 0.00 0.00 0.00 65 1014.4
20260505033403 62 121 1.0 2.0 0.00 0.00 0.00 65 1014.2
20260505032901 62 111 1.0 2.0 0.00 0.00 0.00 65 1014.3
20260505032357 62 138 2.0 2.0 0.00 0.00 0.00 65 1014.2
20260505031854 62 113 2.0 2.0 0.00 0.00 0.00 65 1014.1
20260505031351 62 92 1.0 2.0 0.00 0.00 0.00 65 1014.1
20260505030848 62 110 1.0 2.0 0.00 0.00 0.00 66 1014.3
20260505030344 62 122 2.0 2.0 0.00 0.00 0.00 67 1014.2
20260505025840 62 109 1.0 2.0 0.00 0.00 0.00 69 1014.2
20260505025338 61 124 0.0 2.0 0.00 0.00 0.00 70 1014.1
20260505024836 61 114 1.0 2.0 0.00 0.00 0.00 71 1014.1
20260505024334 61 109 2.0 2.0 0.00 0.00 0.00 71 1014.2
20260505023830 62 130 2.0 2.0 0.00 0.00 0.00 70 1014.3
20260505023327 62 117 2.0 2.0 0.00 0.00 0.00 70 1014.3
20260505022825 62 118 1.0 2.0 0.00 0.00 0.00 70 1014.5
20260505022321 62 120 1.0 2.0 0.00 0.00 0.00 69 1014.2
20260505021819 62 128 1.0 2.0 0.00 0.00 0.00 67 1014.2
20260505021315 63 114 2.0 2.0 0.00 0.00 0.00 66 1014.2
20260505020811 64 105 1.0 2.0 0.00 0.00 0.00 63 1014.1
20260505020307 64 119 2.0 2.0 0.00 0.00 0.00 63 1014.0
20260505015804 64 105 1.0 2.0 0.00 0.00 0.00 63 1013.9
20260505015301 64 109 1.0 2.0 0.00 0.00 0.00 62 1014.0
20260505014758 64 129 0.0 1.0 0.00 0.00 0.00 61 1013.8
20260505014255 65 112 1.0 2.0 0.00 0.00 0.00 60 1013.7
20260505013751 66 119 1.0 2.0 0.00 0.00 0.00 58 1013.9
20260505013249 67 121 0.0 2.0 0.00 0.00 0.00 56 1013.8
20260505012747 67 62 0.0 0.0 0.00 0.00 0.00 56 1013.9
20260505012244 67 62 0.0 1.0 0.00 0.00 0.00 56 1013.9
20260505011739 68 50 0.0 1.0 0.00 0.00 0.00 56 1013.8
20260505011237 68 117 0.0 1.0 0.00 0.00 0.00 55 1013.7
20260505010732 68 118 1.0 2.0 0.00 0.00 0.00 55 1013.7
20260505010229 68 146 1.0 2.0 0.00 0.00 0.00 54 1013.5
20260505005726 68 121 1.0 2.0 0.00 0.00 0.00 54 1013.5
20260505005223 69 117 2.0 2.0 0.00 0.00 0.00 52 1013.4
20260505004720 69 129 2.0 2.0 0.00 0.00 0.00 51 1013.5
20260505004216 70 122 2.0 3.0 0.00 0.00 0.00 50 1013.7
20260505003713 71 125 1.0 1.0 0.00 0.00 0.00 48 1013.4
20260505003211 71 128 1.0 2.0 0.00 0.00 0.00 48 1013.4